Regional Weather Roundup
Issued by NWS

Home | Current Version | Previous Version | Graphics & Text | Print | Product List | Glossary Off
Versions: 1 2 3 4 5 6 7 8 9 10 11 12 13 14 15 16 17 18 19 20 21 22 23 24 25 26 27 28 29 30 31 32 33 34 35 36 37 38 39 40 41 42 43 44 45 46 47 48 49 50

000
ASUS43 KDMX 291606
RWRIA

WEATHER ROUNDUP FOR IOWA
NATIONAL WEATHER SERVICE DES MOINES IA
1100 AM CDT MON MAY 29 2017

NOTE: "FAIR" INDICATES FEW OR NO CLOUDS BELOW 12,000 FEET WITH NO
SIGNIFICANT WEATHER AND/OR OBSTRUCTIONS TO VISIBILITY.

* - THESE STATIONS ARE NOT NWS STATIONS...THUS NOT UNDER NWS
QUALITY CONTROL.  THEY ALSO DO NOT REPORT WEATHER SUCH
AS PRECIPITATION OR FOG.

IAZ001>003-012>014-020>022-031>034-043>046-291700-
   NORTHWEST IOWA

CITY           SKY/WX    TMP DP  RH WIND       PRES   REMARKS
CARROLL *      SUNNY     70  46  43 NW22      29.96R
CHEROKEE *     SUNNY     64  45  50 NW14G26   29.96S
DENISON *      SUNNY     66  45  45 NW20G30   29.99S
LE MARS *      SUNNY     64  43  45 NW18G26   29.99S
ORANGE CITY *  SUNNY     63  46  55 NW23G31   29.97S
SHELDON *      MOSUNNY   64  43  45 NW22G32   29.94S
SIOUX CITY     SUNNY     66  46  48 NW20G29   29.99S
SPENCER        MOSUNNY   64  46  52 NW18G29   29.93S
STORM LAKE *   SUNNY     64  43  45 NW23G30   29.95F
$$

IAZ055>058-069>071-079>083-090>094-291700-
   SOUTHWEST IOWA

CITY           SKY/WX    TMP DP  RH WIND       PRES   REMARKS
ATLANTIC *     SUNNY     70  45  40 NW12G21   29.97S
AUDUBON *      SUNNY     68  46  45 NW13G18   29.98R
CLARINDA *     SUNNY     73  45  35 NW8G14    30.00S
COUNCIL BLFS * SUNNY     70  48  46 W8G16     29.99S
CRESTON *      SUNNY     70  43  37 NW14G21   29.98S
HARLAN  *      SUNNY     70  43  37 NW21G26   30.01S
LAMONI         SUNNY     71  48  43 NW7       29.96S
RED OAK *      SUNNY     73  46  38 NW13G20   29.99R
SHENANDOAH *   SUNNY     72  46  40 NW8       30.00R
$$

IAZ047>049-059>061-072>074-084-291700-
   CENTRAL IOWA

CITY           SKY/WX    TMP DP  RH WIND       PRES   REMARKS
AMES           SUNNY     68  46  45 NW22G29   29.93R
ANKENY *       SUNNY     68  45  42 NW17      29.95R
BOONE *        SUNNY     68  45  42 NW18G32   29.93S
CHARITON *     SUNNY     70  46  43 NW10G20   29.95R
DES MOINES     MOSUNNY   71  44  37 NW13      29.94R
GRINNELL*      SUNNY     68  46  44 W17G23    29.93S
KNOXVILLE *    SUNNY     70  45  40 NW14G20   29.92S
MARSHALLTOWN   SUNNY     68  46  45 W21G35    29.90S
NEWTON *       SUNNY     68  43  40 NW22      29.92R
PELLA *        SUNNY     70  42  35 NW10G22   29.94R
PERRY *          N/A     69  41  36 NW17      29.95R
$$

IAZ004>006-015-016-023>025-035-036-291700-
   NORTH CENTRAL IOWA

CITY           SKY/WX    TMP DP  RH WIND       PRES   REMARKS
ALGONA *       MOSUNNY   64  45  48 NW20G26   29.91F
CLARION *      MOSUNNY   66  45  45 NW18G28   29.91R
ESTHERVILLE    MOSUNNY   62  46  55 W22G28    29.90S
FORT DODGE *   PTSUNNY   64  45  48 W12G23    29.94R
MASON CITY     CLOUDY    61  44  53 W20G26    29.90S
FOREST CITY *  PTSUNNY   64  34  32 NW17G23   29.88F
WEBSTER CITY * MOSUNNY   68  43  40 NW22G33   29.90R
IOWA FALLS *     N/A     67  46  45 W20G26    29.91S
$$

IAZ007>011-017>019-026>030-037>042-050>054-066-291700-
   NORTHEAST IOWA

CITY           SKY/WX    TMP DP  RH WIND       PRES   REMARKS
CEDAR RAPIDS   SUNNY     68  48  48 NW23G29   29.89R
CHARLES CITY * PTSUNNY   64  43  45 NW24      29.88S
CLINTON *      SUNNY     67  49  52 W21       29.87R
DECORAH *      CLOUDY    59  45  58 W15G22    29.85R
DUBUQUE        SUNNY     65  47  52 NW23G32   29.86R
MONTICELLO *   SUNNY     68  46  45 W18G25    29.86S
OELWEIN *      PTSUNNY   63  46  55 NW24      29.87S
WATERLOO       MOSUNNY   65  46  50 W16G23    29.88S
$$

IAZ064-065-067-068-078-291700-
   EAST CENTRAL IOWA

CITY           SKY/WX    TMP DP  RH WIND       PRES   REMARKS
DAVENPORT      MOSUNNY   68  46  45 NW15G23   29.89R
IOWA CITY      MOSUNNY   70  47  43 W18       29.91S
MT. PLEASANT * MOSUNNY   70  44  39 NW10G17   29.92S
MUSCATINE *    PTSUNNY   70  48  46 W13       29.91R
QUAD CITIES    SUNNY     70  47  43 NW13      29.88R
$$

IAZ062-063-075>077-085>089-095>099-291700-
   SOUTHEAST IOWA

CITY           SKY/WX    TMP DP  RH WIND       PRES   REMARKS
BURLINGTON     SUNNY     72  50  45 VRB7      29.92R
FAIRFIELD *    MOSUNNY   70  45  40 NW13G20   29.92R
FORT MADISON * PTSUNNY   72  46  40 NW6       29.93R
KEOKUK *       MOSUNNY   68  50  52 MISG      29.93R
OSKALOOSA *      N/A     71  42  36 NW15G21   29.93R
CENTERVILLE *    N/A     73  43  33 NW9G17    29.97R
OTTUMWA        MOSUNNY   71  48  43 NW14      29.93R
WASHINGTON *   MOSUNNY   72  46  40 NW14G21   29.93R
$$

ABBREVIATIONS USED IN REMARKS
   TC - TEMPERATURES IN CELSIUS
  WCI - WIND CHILL INDEX
   HX - HEAT INDEX
  VSB - VISIBILITY
$$





USA.gov is the U.S. government's official web portal to all federal, state and local government web resources and services.